Estación Meteorológica Peña el Pijo (Robertgarden) [ 09/29/20 13:04:39 CEST ]

Fecha Hora Presion(HPa) Temp (°C) Humedad % Rocio (°C) Viento ( m/s) Direccion Lluvia 1Hora(mm) Lluvia 24H(mm) LLuvia Total(mm)
2020-Jan-05 01:09:37 1018.100 - - - - NNE     39.88
2020-Jan-05 02:09:48 1017.600 - - - - NNE     39.88
2020-Jan-05 03:09:52 1017.700 - - - - NNE     39.88
2020-Jan-05 04:09:51 1017.200 - - - - NNE     39.88
2020-Jan-05 05:09:30 1017.100 - - - - NNE     39.88
2020-Jan-05 06:13:57 1016.900 - - - - NNE     39.88
2020-Jan-05 07:09:04 1016.800 - - - - NNE     39.88
2020-Jan-05 08:09:37 1017.100 - - - - NNE     39.88
2020-Jan-05 09:09:15 1017.300 - - - - NNE     39.88
2020-Jan-05 10:08:51 1017.300 - - - - NNE     39.88
2020-Jan-05 11:09:16 1017.100 - - - - NNE     39.88
2020-Jan-05 12:09:06 1016.500 - - - - NNE     39.88
2020-Jan-05 13:09:16 1015.600 - - - - NNE     39.88
2020-Jan-05 14:09:19 1014.800 - - - - NNE     39.88
2020-Jan-05 15:09:16 1014.400 - - - - NNE     39.88
2020-Jan-05 16:09:41 1014.300 - - - - NNE     39.88
2020-Jan-05 17:09:25 1014.400 - - - - NNE     39.88
2020-Jan-05 18:09:21 1014.900 - - - - NNE     39.88
2020-Jan-05 19:09:25 1015.100 - - - - NNE     39.88
2020-Jan-05 20:09:12 1015.600 - - - - NNE     39.88
2020-Jan-05 21:09:12 1015.700 - - - - NNE     39.88
2020-Jan-05 22:08:52 1016.100 - - - - NNE     39.88
2020-Jan-05 23:09:04 1016.000 - - - - NNE     39.88

Temperatura Máxima:    Temperatura Mínima:
Presión Máxima:1018.100 Hpa    Presión Mínima:1014.300 Hpa


Volver